[[{"header":{"parameterUnit":"m.s-1","parameterCategory":1,"la1":30.2992,"la2":30.254,"lo1":-89.0895,"lo2":-89.0443,"dy":0.0025,"dx":0.0025,"nx":19,"ny":19,"refTime":"2026-03-08T09:00:00:Z","depth":0,"parameterNumber":2,"parameterNumberName":"U-component_of_WINDS"},"data":[0,0,0,1.5927,1.5931,1.6129,1.613,1.6383,1.6385,0,0,0,0,0,0,0,0,0,0,0,1.5859,1.586,1.5926,1.5931,1.6129,1.613,1.6383,1.6385,0,0,0,0,0,0,0,0,0,0,0,1.5858,1.586,1.5861,1.5932,1.6129,1.613,1.6382,1.6235,0,0,0,0,0,0,0,0,0,0,1.6043,1.5969,1.5859,1.5861,1.5933,1.6129,1.613,1.6228,1.6244,1.629,0,1.632,0,1.6356,1.6401,1.6402,0,0,0,1.594,1.5955,1.6016,1.5861,1.5934,1.6129,1.6042,1.6237,1.6255,1.6311,1.6324,1.6334,1.636,1.6403,1.6404,1.6617,1.6618,0,0,1.5929,1.5891,1.6003,1.6027,1.5987,1.6036,1.6048,1.6248,1.6263,1.6325,1.634,1.6364,1.6404,1.6406,1.6617,1.6618,0,0,0,1.5891,1.5883,1.594,1.6017,1.6052,1.6041,1.6056,1.6254,1.6275,1.6343,1.6367,1.6406,1.6409,1.6616,1.6617,1.6604,0,0,0,1.5885,1.5861,1.5934,1.5914,1.6048,1.6154,1.6057,1.6261,1.6285,1.6366,1.6406,1.6411,1.6616,1.6617,1.6603,1.6606,0,0,0,1.5849,1.5857,1.5882,1.5911,1.5994,1.6151,1.6184,1.6267,1.63,1.6402,1.6412,1.6615,1.6617,1.6603,1.6605,1.665,0,0,0,1.5802,1.5872,1.5881,1.597,1.5992,1.6139,1.6183,1.6298,1.6384,1.6407,1.6616,1.6617,1.6602,1.6604,1.6649,1.668,1.6689,0,0,1.587,1.5879,1.5935,1.5948,1.6083,1.6112,1.625,1.6369,1.6418,1.655,1.6556,1.6604,1.6605,1.665,1.6755,1.6762,0,0,0,1.5944,1.5983,1.6027,1.6103,1.619,1.6268,1.6368,1.6413,1.6526,1.6475,1.6634,1.6636,1.6664,1.6681,1.6687,1.6715,1.6623,1.6623,1.6623,1.5988,1.604,1.6136,1.6212,1.6287,1.6388,1.6455,1.6534,1.6571,1.6608,1.6647,1.6703,1.6722,1.6727,1.6754,1.6669,1.6669,1.6669,1.6669,1.6093,1.6157,1.6198,1.6306,1.6364,1.6459,1.6562,1.6584,1.6685,1.6678,1.6706,1.6694,1.6732,1.676,1.6668,1.6668,1.6668,1.6668,1.6668,1.6127,1.6166,1.6215,1.6329,1.6414,1.6493,1.6585,1.6637,1.6688,1.6715,1.6763,1.6764,1.6771,1.6734,1.6734,1.6735,1.6735,1.6735,1.6735,1.6143,1.6197,1.6265,1.6362,1.6418,1.6499,1.6602,1.6662,1.6741,1.6773,1.6774,1.6807,1.6724,1.6702,1.6738,1.6738,1.6737,1.6737,1.6737,1.623,1.6217,1.6321,1.6376,1.6496,1.6578,1.6641,1.6757,1.6815,1.686,1.6888,1.6818,1.6834,1.683,1.6812,1.6874,1.6874,1.6874,1.6874,1.6258,1.6269,1.6386,1.6471,1.6561,1.6628,1.6751,1.6835,1.6921,1.6961,1.696,1.6941,1.6934,1.6954,1.6947,1.6932,1.7023,1.7023,1.7024,1.6315,1.6337,1.6427,1.6502,1.66,1.6685,1.6803,1.6905,1.7002,1.7031,1.6994,1.6987,1.6958,1.6945,1.6972,1.696,1.6933,0,0]},{"header":{"parameterUnit":"m.s-1","parameterCategory":1,"la1":30.2992,"la2":30.254,"lo1":-89.0895,"lo2":-89.0443,"dy":0.0025,"dx":0.0025,"nx":19,"ny":19,"refTime":"2026-03-08T09:00:00:Z","depth":0,"parameterNumber":3,"parameterNumberName":"V-component_of_WINDS"},"data":[0,0,0,0.7553,0.7551,0.7435,0.7435,0.7294,0.7293,0,0,0,0,0,0,0,0,0,0,0,0.7592,0.7591,0.7553,0.755,0.7435,0.7435,0.7294,0.7293,0,0,0,0,0,0,0,0,0,0,0,0.7592,0.7591,0.759,0.755,0.7435,0.7435,0.7294,0.7379,0,0,0,0,0,0,0,0,0,0,0.749,0.753,0.7592,0.759,0.7549,0.7435,0.7434,0.7383,0.7374,0.7349,0,0.733,0,0.7309,0.7284,0.7283,0,0,0,0.7546,0.7538,0.7503,0.759,0.7548,0.7436,0.7486,0.7377,0.7367,0.7337,0.7328,0.7322,0.7307,0.7283,0.7282,0.7159,0.7159,0,0,0.7553,0.7573,0.751,0.7496,0.7516,0.749,0.7482,0.7371,0.7362,0.7327,0.7319,0.7305,0.7282,0.7281,0.7159,0.7159,0,0,0,0.7574,0.7578,0.7545,0.7502,0.7481,0.7486,0.7478,0.7367,0.7354,0.7317,0.7303,0.7281,0.728,0.716,0.7159,0.7162,0,0,0,0.7577,0.759,0.7548,0.756,0.7483,0.7423,0.7476,0.7362,0.7349,0.7304,0.7281,0.7278,0.716,0.7159,0.7162,0.7159,0,0,0,0.7598,0.7593,0.7578,0.7561,0.7512,0.7424,0.7405,0.7359,0.734,0.7283,0.7278,0.716,0.716,0.7163,0.716,0.7134,0,0,0,0.7625,0.758,0.7578,0.7522,0.7514,0.7426,0.7406,0.7339,0.729,0.7281,0.716,0.7159,0.7163,0.7161,0.7135,0.7117,0.7111,0,0,0.758,0.7575,0.7541,0.7536,0.7455,0.7442,0.7361,0.7296,0.727,0.7197,0.7194,0.7162,0.7161,0.7135,0.7068,0.7064,0,0,0,0.7533,0.7509,0.7483,0.7438,0.7388,0.7346,0.7291,0.7267,0.7204,0.7237,0.7144,0.7142,0.7126,0.7117,0.7113,0.7098,0.7155,0.7155,0.7156,0.7499,0.7471,0.7412,0.737,0.7327,0.7272,0.7234,0.7192,0.7174,0.7153,0.7132,0.7095,0.7085,0.7082,0.7067,0.7118,0.7118,0.7118,0.7118,0.7431,0.7393,0.7372,0.7308,0.7278,0.7223,0.7168,0.7158,0.7102,0.7109,0.7093,0.7104,0.7078,0.7063,0.7118,0.7118,0.7118,0.7118,0.7118,0.7407,0.7384,0.7356,0.729,0.7242,0.72,0.7148,0.7122,0.7096,0.7081,0.7056,0.7056,0.7054,0.707,0.707,0.707,0.707,0.707,0.707,0.7394,0.7363,0.7323,0.7267,0.7236,0.7191,0.7135,0.7103,0.7061,0.7046,0.7045,0.7031,0.708,0.7094,0.7068,0.7068,0.7068,0.7069,0.7069,0.7338,0.7347,0.7286,0.7255,0.7187,0.7142,0.7109,0.7046,0.7015,0.6991,0.6979,0.702,0.7013,0.7016,0.7027,0.6985,0.6985,0.6985,0.6985,0.7319,0.7313,0.7246,0.7198,0.7147,0.7111,0.7043,0.7,0.6956,0.6935,0.6937,0.6949,0.6953,0.6944,0.6948,0.6959,0.69,0.69,0.69,0.7284,0.7272,0.722,0.7179,0.7124,0.7078,0.7013,0.6958,0.691,0.6896,0.6919,0.6922,0.6942,0.6949,0.6938,0.6945,0.6963,0,0]}]]